Location: Houhaj�rvi
(61.2667°N, 23.0167°E)
Time: 18:25:58
(UTC+00:00)

SMAP - Pass Details

Date: 13 December 2019
Orbit: 681 x 684 km, 98.1° (Epoch: 17 January)

Event Time Altitude Azimuth Distance (km) Brightness Sun altitude
Rises 14:12:43 0° 129° (SE) 3,047 6.3 -6.2°
Reaches altitude 10° 14:15:05 10° 120° (ESE) 2,134 5.4 -6.4°
Maximum altitude 14:19:18 35° 56° (NE) 1,116 3.7 -6.8°
Drops below altitude 10° 14:23:32 10° 352° (N) 2,144 5.4 -7.3°
Sets 14:25:55 0° 344° (NNW) 3,064 6.2 -7.5°
